Location: Newark
(7.0858°N, 171.3717°E)
Time: 08:01:45
(UTC+00:00)

A-11 Canister half - Pass Details

Date: 05 August 2021
Orbit: 1526 x 1683 km, 47.3° (Epoch: 16 September)

Event Time Altitude Azimuth Distance (km) Brightness Sun altitude
Rises 07:20:54 0° 317° (NW) 4,796 12.8 -7.5°
Reaches altitude 10° 07:24:01 10° 317° (NW) 3,789 12.2 -8.2°
Maximum altitude 07:33:36 80° 231° (SW) 1,573 9.1 -10.5°
Drops below altitude 10° 07:42:56 10° 144° (SE) 3,696 10.5 -12.7°
Enters shadow 07:43:47 - 144° (SE) 3,967 10.7 -12.9°
